Location: Milton
(43.5183°N, 79.8775°W)
Time: 06:54:55
(UTC+00:00)

N. Korean satellite - Pass Details

Date: 08 December 2022
Orbit: 407 x 444 km, 97.3° (Epoch: 28 January)

Event Time Altitude Azimuth Distance (km) Brightness Sun altitude
Rises 10:15:02 0° 19° (NNE) 2,496 10.3 -25.4°
Reaches altitude 10° 10:17:12 10° 28° (NNE) 1,608 9.4 -25.0°
Maximum altitude 10:20:27 38° 98° (E) 707 7.8 -24.4°
Drops below altitude 10° 10:23:37 10° 168° (SSE) 1,566 9.4 -23.9°
Sets 10:25:42 0° 177° (S) 2,420 10.3 -23.5°
